Location: Binningen
(47.7924°N, 8.7261°E)
Time: 01:21:14
(UTC+00:00)

Cosmos 1733 Rocket - Visible Passes

Search period start: 29 September 2021 00:00
Search period end: 09 October 2021 00:00
Orbit: 603 x 628 km, 82.5° (Epoch: 28 September)

Date Brightness Start Highest point End Pass type
(mag) Time Alt. Az. Time Alt. Az. Time Alt. Az.
29 Sep 6.3 02:39:18 10° NE 02:41:29 13° ENE 02:43:40 10° E visible
29 Sep 3.0 04:15:27 10° NNW 04:19:50 74° W 04:24:14 10° S visible
29 Sep 6.2 18:29:15 10° WSW 18:31:59 16° WNW 18:34:45 10° NNW visible
30 Sep 5.6 02:54:38 10° NNE 02:58:03 22° ENE 03:01:28 10° ESE visible
30 Sep 3.4 04:31:53 10° NNW 04:36:03 42° W 04:40:12 10° SSW visible
01 Oct 4.7 03:10:28 10° N 03:14:32 35° ENE 03:18:35 10° SE visible
01 Oct 4.1 04:48:34 10° NNW 04:52:09 25° W 04:55:45 10° SW visible
02 Oct 3.6 03:26:32 10° N 03:30:54 61° ENE 03:35:16 10° SSE visible
02 Oct 5.5 17:39:05 10° SW 17:42:47 27° WNW 17:46:32 10° NNW visible
03 Oct 6.2 02:06:45 10° NE 02:08:48 13° ENE 02:10:51 10° E visible
03 Oct 2.9 03:42:47 10° NNW 03:47:12 78° W 03:51:37 10° S visible
03 Oct 6.1 17:56:27 10° WSW 17:59:19 17° WNW 18:02:11 10° NNW visible
04 Oct 5.5 02:22:01 10° NNE 02:25:23 21° ENE 02:28:45 10° ESE visible
04 Oct 3.3 03:59:12 10° NNW 04:03:25 44° W 04:07:37 10° SSW visible
04 Oct 6.6 18:15:14 10° WNW 18:15:56 10° WNW 18:16:38 10° NW visible
05 Oct 4.7 02:37:49 10° N 02:41:52 34° ENE 02:45:55 10° SE visible
05 Oct 4.0 04:15:52 10° NNW 04:19:32 26° W 04:23:12 10° SW visible
06 Oct 3.6 02:53:53 10° N 02:58:15 58° ENE 03:02:37 10° SSE visible
06 Oct 4.6 04:32:56 10° NW 04:35:34 16° W 04:38:12 10° WSW visible
07 Oct 6.1 01:34:13 10° NE 01:36:08 12° ENE 01:37:15 12° ENE visible
07 Oct 3.0 03:10:07 10° N 03:14:09 72° NW 03:14:09 72° NW visible
07 Oct 6.0 17:23:40 10° WSW 17:26:38 18° WNW 17:29:37 10° NNW visible
08 Oct 5.7 01:49:25 10° NNE 01:51:26 18° NE 01:51:26 18° NE visible
08 Oct 4.6 03:26:31 10° NNW 03:28:25 24° NNW 03:28:25 24° NNW visible
08 Oct 6.4 17:42:06 10° WNW 17:43:14 11° WNW 17:44:23 10° NW visible
